Hof Plauen, Germany

7:06 AM CEST on July 25, 2017 (GMT +0200)
Hof-Plauen

Weather History for EDQM - December, 2012

Change the Weather History Date:

Friday, December 28, 2012

  Actual Average Record
Temperature  
Mean Temperature 32 °F -  
Max Temperature 35 °F 31 °F 50 °F (2015)
Min Temperature 28 °F 24 °F 3 °F (1996)
Degree Days  
Heating Degree Days 34    
Moisture  
Dew Point 31 °F    
Average Humidity 91    
Maximum Humidity 100    
Minimum Humidity 81    
Precipitation  
Precipitation 0.01 in - - ()
Sea Level Pressure  
Sea Level Pressure 30.21 in    
Wind  
Wind Speed 7 mph ()    
Max Wind Speed 14 mph    
Max Gust Speed -    
Visibility 5.3 miles    
Events Rain , Snow    
Averages and records for this station are not official NWS values.
T = Trace of Precipitation, MM = Missing Value Source: Averaged Metar Reports

Daily Weather History Graph

Daily Weather History Graph

Search for Another Location

Airport or City:

Trip Planner

Search our weather history database for the weather conditions in past years. The results will help you decide how hot, cold, wet, or windy it might be!

Date:

Astronomy

Dec. 28, 2012 Rise Set
Actual Time 8:12 AM CET 4:16 PM CET
Civil Twilight 7:33 AM CET 4:54 PM CET
Nautical Twilight 6:51 AM CET 5:36 PM CET
Astronomical Twilight 6:12 AM CET 6:16 PM CET
Moon 4:43 PM CET (12/28) 7:50 AM CET (12/28)
Length of Visible Light 9h 21m
Length of Day
8h 03m
Full, 100% of the Moon is Illuminated
Dec 28
Full
Jan 5
Last Quarter
Jan 11
New
Jan 19
First Quarter
Jan 27
Full

Hourly Weather History & Observations

Time (CET) Temp. Windchill Dew Point Humidity Pressure Visibility Wind Dir Wind Speed Gust Speed Precip Events Conditions
12:00 AM 36 °F - 35 °F 95% 29.81 in 2 mi West 11.2 mph - - Rain Rain
12:20 AM 35.6 °F 27.5 °F 33.8 °F 93% 29.77 in 5.0 mi West 11.5 mph - N/A Rain Rain
12:50 AM 35.6 °F 29.2 °F 33.8 °F 93% 29.80 in 3.7 mi WNW 8.1 mph - N/A Rain Rain
1:20 AM 33.8 °F 27.0 °F 32.0 °F 93% 29.83 in 3.7 mi WNW 8.1 mph - N/A Rain , Snow Light Rain
1:50 AM 33.8 °F 27.0 °F 32.0 °F 93% 29.86 in - WNW 8.1 mph - N/A Rain , Snow Light Rain
2:00 AM 35 °F - 35 °F 100% 29.92 in 4 mi NNW 8.9 mph - - Rain Rain
2:20 AM 35.6 °F 28.6 °F 32.0 °F 87% 29.89 in 5.6 mi NNW 9.2 mph - N/A Rain Light Rain
2:50 AM 33.8 °F 27.7 °F 32.0 °F 93% 29.92 in 2.2 mi NNW 6.9 mph - N/A Snow Light Snow
3:00 AM 33 °F - 33 °F 99% 29.99 in 3 mi NNW 6.7 mph - -   Light Ice Pellets
3:20 AM 33.8 °F 28.6 °F 32.0 °F 93% 29.92 in 6.2 mi NNW 5.8 mph - N/A Rain Light Rain
3:50 AM 35.6 °F 28.6 °F 33.8 °F 93% 29.95 in 5.0 mi NNW 9.2 mph - N/A Rain Light Rain
4:20 AM 35.6 °F 28.6 °F 33.8 °F 93% 30.01 in - NNW 9.2 mph - N/A Rain Rain
4:50 AM 35.6 °F 29.2 °F 33.8 °F 93% 30.01 in 5.0 mi NNW 8.1 mph - N/A   Drizzle
5:00 AM 36 °F - 35 °F 95% 30.09 in 4 mi North 8.9 mph - - Rain Rain
5:20 AM 33.8 °F 25.8 °F 32.0 °F 93% 30.04 in 3.1 mi NNW 10.4 mph - N/A Rain Light Rain
5:50 AM 33.8 °F 25.8 °F 32.0 °F 93% 30.06 in 4.3 mi North 10.4 mph - N/A Rain Rain
6:00 AM 34 °F - 33 °F 95% 30.15 in 3 mi North 11.2 mph - - Rain Light Drizzle
6:20 AM 33.8 °F 28.6 °F 32.0 °F 93% 30.09 in 3.7 mi North 5.8 mph - N/A   Overcast
6:50 AM 32.0 °F 24.2 °F 30.2 °F 93% 30.12 in 1.8 mi North 9.2 mph - N/A Snow Light Snow
7:00 AM 32 °F - 31 °F 97% 30.21 in 1 mi North 6.7 mph - - Snow Light Snow
7:20 AM 32.0 °F 24.2 °F 30.2 °F 93% 30.15 in 1.7 mi North 9.2 mph - N/A Snow Light Snow
7:50 AM 32.0 °F 25.6 °F 30.2 °F 93% 30.15 in - North 6.9 mph - N/A Snow Light Snow
8:00 AM 31 °F - 31 °F 99% 30.26 in 1 mi NNE 6.7 mph - - Snow Light Snow
8:20 AM 32.0 °F 24.8 °F 30.2 °F 93% 30.18 in - North 8.1 mph - N/A Snow Snow Grains
8:50 AM 32.0 °F 24.8 °F 28.4 °F 87% 30.21 in 4.3 mi NNE 8.1 mph - N/A Snow Snow Grains
9:00 AM 31 °F - 30 °F 93% 30.31 in 4 mi NNE 4.5 mph - - Snow Snow Grains
9:20 AM 30.2 °F 25.4 °F 28.4 °F 93% 30.21 in 4.3 mi North 4.6 mph - N/A Snow Snow Grains
9:50 AM 30.2 °F 22.6 °F 26.6 °F 86% 30.24 in 3.7 mi NNE 8.1 mph - N/A Snow Snow Grains
10:20 AM 28.4 °F 21.2 °F 26.6 °F 93% 30.27 in 3.1 mi NE 6.9 mph - N/A Snow Light Snow
10:50 AM 28.4 °F 22.2 °F 26.6 °F 93% 30.27 in 2.2 mi NE 5.8 mph - N/A Snow Light Snow
11:00 AM 29 °F - 27 °F 91% 30.39 in 6 mi NE 4.5 mph - - Rain Light Freezing Rain
11:20 AM 28.4 °F 22.2 °F 26.6 °F 93% 30.27 in 5.6 mi ENE 5.8 mph - N/A Snow Light Snow
11:50 AM 30.2 °F 26.7 °F 26.6 °F 86% 30.30 in 6.2 mi East 3.5 mph - N/A   Overcast
12:20 PM 30.2 °F - 26.6 °F 86% 30.30 in 6.2 mi Variable 2.3 mph - N/A   Overcast
12:50 PM 30.2 °F 26.7 °F 26.6 °F 86% 30.30 in 6.2 mi SSE 3.5 mph - N/A   Overcast
1:00 PM 30 °F - 28 °F 91% 30.40 in 9 mi SSE 4.5 mph - -   Partly Cloudy
1:20 PM 30.2 °F 25.4 °F 26.6 °F 86% 30.30 in 6.2 mi SE 4.6 mph - N/A   Overcast
1:50 PM 32.0 °F 27.5 °F 28.4 °F 87% 30.30 in 6.2 mi SSE 4.6 mph - N/A   Overcast
2:00 PM 31 °F - 29 °F 88% 30.40 in 12 mi South 6.7 mph - -   Mostly Cloudy
2:20 PM 32.0 °F 27.5 °F 28.4 °F 87% 30.30 in 6.2 mi South 4.6 mph - N/A   Scattered Clouds
2:50 PM 33.8 °F 28.6 °F 30.2 °F 87% 30.30 in 6.2 mi South 5.8 mph - N/A   Partly Cloudy
3:00 PM 32 °F - 31 °F 93% 30.40 in 12 mi SSE 4.5 mph - -   Mostly Cloudy
3:20 PM 33.8 °F 29.6 °F 30.2 °F 87% 30.30 in 6.2 mi South 4.6 mph - N/A   Mostly Cloudy
3:50 PM 33.8 °F 27.7 °F 28.4 °F 81% 30.33 in 6.2 mi SW 6.9 mph - N/A   Overcast
4:20 PM 33.8 °F 28.6 °F 28.4 °F 81% 30.33 in 6.2 mi South 5.8 mph - N/A   Scattered Clouds
4:50 PM 32.0 °F 26.4 °F 28.4 °F 87% 30.33 in 6.2 mi South 5.8 mph - N/A   Unknown
5:00 PM 33 °F - 31 °F 88% 30.42 in 16 mi South 6.7 mph - -   Scattered Clouds
5:20 PM 32.0 °F 27.5 °F 28.4 °F 87% 30.33 in 6.2 mi SSE 4.6 mph - N/A   Partly Cloudy
5:50 PM 32.0 °F 27.5 °F 28.4 °F 87% 30.33 in 6.2 mi South 4.6 mph - N/A   Unknown
6:00 PM 32 °F - 31 °F 96% 30.42 in 9 mi South 6.7 mph - -   Clear
6:20 PM 32.0 °F 25.6 °F 30.2 °F 93% 30.33 in 6.2 mi SSW 6.9 mph - N/A   Unknown
6:50 PM 32.0 °F 24.8 °F 30.2 °F 93% 30.33 in 6.2 mi South 8.1 mph - N/A   Scattered Clouds
7:00 PM 32 °F - 31 °F 96% 30.41 in 7 mi South 6.7 mph - -   Clear
7:20 PM 33.8 °F 27.0 °F 30.2 °F 87% 30.33 in 6.2 mi South 8.1 mph - N/A   Mostly Cloudy
7:50 PM 33.8 °F 25.8 °F 32.0 °F 93% 30.30 in 3.7 mi SSW 10.4 mph - N/A   Overcast
8:00 PM 34 °F - 33 °F 96% 30.39 in 6 mi SSW 8.9 mph - -   Partly Cloudy
8:20 PM 33.8 °F 25.3 °F 32.0 °F 93% 30.30 in 5.0 mi SSW 11.5 mph - N/A   Mostly Cloudy
8:50 PM 33.8 °F 25.3 °F 32.0 °F 93% 30.30 in 5.0 mi SSW 11.5 mph - N/A   Overcast
9:00 PM 35 °F - 33 °F 92% 30.38 in 5 mi SSW 8.9 mph - -   Mostly Cloudy
9:20 PM 33.8 °F 25.3 °F 32.0 °F 93% 30.30 in 3.7 mi SSW 11.5 mph - N/A   Overcast
9:50 PM 35.6 °F 28.6 °F 32.0 °F 87% 30.30 in 3.7 mi SSW 9.2 mph - N/A   Mostly Cloudy
10:20 PM 35.6 °F 26.6 °F 32.0 °F 87% 30.30 in 5.0 mi SSW 13.8 mph - N/A   Overcast
10:50 PM 35.6 °F 27.5 °F 32.0 °F 87% 30.30 in 6.2 mi South 11.5 mph - N/A   Mostly Cloudy
11:00 PM 35 °F - 34 °F 93% 30.37 in 4 mi South 8.9 mph - -   Mist
11:20 PM 35.6 °F 27.1 °F 32.0 °F 87% 30.30 in 6.2 mi South 12.7 mph - N/A   Overcast
11:50 PM 35.6 °F 28.0 °F 32.0 °F 87% 30.30 in 6.2 mi South 10.4 mph - N/A   Overcast